FW1708 Weather Reports


Display with metric or nautical units.
time (UTC)temp
F
wind
direction
speed
MPH
gust
MPH
rain 1hr
in
rain 24hr
in
rain mn
in
humidity
%
barometer
mb
20260504110107 46 258 1.0 4.0 0.00 0.00 0.00 83 1015.5
20260504081537 40 258 0.0 0.0 0.00 0.00 0.00 81 1015.4
20260504050016 47 259 0.0 2.0 0.00 0.00 0.00 62 1015.2
20260504044531 46 259 0.0 3.0 0.00 0.00 0.00 65 1015.3
20260504043009 43 259 0.0 2.0 0.00 0.00 0.00 70 1015.2
20260504041506 44 259 0.0 0.0 0.00 0.00 0.00 69 1015.2
20260504040003 44 259 0.0 0.0 0.00 0.00 0.00 67 1015.0
20260504034502 45 258 0.0 0.0 0.00 0.00 0.00 66 1014.9
20260504033002 46 257 0.0 0.0 0.00 0.00 0.00 65 1014.8
20260504031502 47 258 0.0 0.0 0.00 0.00 0.00 63 1014.8
20260504030001 47 360 0.0 2.0 0.00 0.00 0.00 63 1014.7
20260504024501 46 259 0.0 1.0 0.00 0.00 0.00 64 1014.8
20260504023100 46 360 0.0 0.0 0.00 0.00 0.00 65 1014.8
20260504021602 47 360 0.0 0.0 0.00 0.00 0.00 61 1014.8
20260504014603 49 258 0.0 0.0 0.00 0.00 0.00 58 1014.6
20260504013059 50 360 0.0 0.0 0.00 0.00 0.00 57 1014.4
20260504011559 50 360 0.0 0.0 0.00 0.00 0.00 55 1014.3
20260504004557 54 360 0.0 0.0 0.00 0.00 0.00 49 1014.0
20260504003056 56 259 0.0 1.0 0.00 0.00 0.00 45 1013.7
20260504001612 57 260 2.0 4.0 0.00 0.00 0.00 42 1013.6
20260504000056 57 274 2.0 6.0 0.00 0.00 0.00 40 1013.4
20260503234554 58 296 4.0 8.0 0.00 0.00 0.00 39 1013.3
20260503233054 59 264 2.0 7.0 0.00 0.00 0.00 39 1013.2
20260503231554 59 261 2.0 4.0 0.00 0.00 0.00 37 1013.2
20260503230053 59 274 4.0 7.0 0.00 0.00 0.00 36 1013.1
20260503224553 60 252 4.0 11.0 0.00 0.00 0.00 36 1013.0
20260503223052 60 292 3.0 9.0 0.00 0.00 0.00 36 1013.0
20260503221552 60 289 6.0 13.0 0.00 0.00 0.00 34 1013.1
20260503220106 60 257 4.0 9.0 0.00 0.00 0.00 35 1013.0
20260503214551 60 317 3.0 10.0 0.00 0.00 0.00 35 1013.0
20260503213050 60 247 4.0 11.0 0.00 0.00 0.00 35 1012.9
20260503211602 60 251 3.0 8.0 0.00 0.00 0.00 36 1012.8
20260503210054 60 263 5.0 12.0 0.00 0.00 0.00 35 1012.9
20260503204552 59 247 2.0 10.0 0.00 0.00 0.00 38 1013.0
20260503203044 59 255 6.0 11.0 0.00 0.00 0.00 36 1013.2
20260503201543 58 270 5.0 13.0 0.00 0.00 0.00 39 1013.2
20260503200042 57 323 3.0 13.0 0.00 0.00 0.00 42 1013.3
20260503194545 57 245 3.0 10.0 0.00 0.00 0.00 38 1013.3
20260503193048 57 251 6.0 12.0 0.00 0.00 0.00 39 1013.4
20260503191538 57 238 3.0 8.0 0.00 0.00 0.00 39 1013.7
20260503190037 56 232 5.0 12.0 0.00 0.00 0.00 39 1013.8
20260503184535 56 277 4.0 17.0 0.00 0.00 0.00 39 1014.0
20260503183039 56 263 4.0 14.0 0.00 0.00 0.00 42 1014.1
20260503181604 55 237 8.0 16.0 0.00 0.00 0.00 38 1014.1
20260503180031 55 272 4.0 13.0 0.00 0.00 0.00 39 1014.1
20260503174529 55 264 6.0 10.0 0.00 0.00 0.00 42 1014.3
20260503173042 54 304 4.0 14.0 0.00 0.00 0.00 42 1014.5
20260503171525 54 272 4.0 12.0 0.00 0.00 0.00 41 1014.4